Date String (YYYY-MM-DD hh:mm:ss) UTC,Instrument flags,Ambient pressure (hPa),Sample flow (lpm),Bypass flow (lpm),Sample temperature (°C),Ambient temperature (°C),ASC tube jacket temperature (°C),LED temperature (°C),Box temperature (°C),Sample RH (%),Span deviation,Mass concentration (μg/m³),Mass concentration (μg/m³),Mass concentration (μg/m³)
DateTimeUTC,F1_M11,P_M11,Q1_M11,Q2_M11,T1_M11,T2_M11,T3_M11,T4_M11,T5_M11,U1_M11,ZSPAN_M11,X0_M11,X2_M11,X1_M11
2022-09-25 22:00:00,,0833.5,4.99,0.00,30.1,29.0,00.0,38.7,32.1,16.0,0002.1,0013.79,0007.76,0007.11
2022-09-25 22:01:00,,0833.5,5.00,0.00,30.1,29.1,00.0,38.8,32.1,16.0,0001.8,0014.55,0007.69,0007.09
2022-09-25 22:02:00,,0833.6,4.99,0.00,30.2,29.2,00.0,38.8,32.2,16.1,0001.5,0015.04,0007.65,0007.06
2022-09-25 22:03:00,,0833.6,4.99,0.00,30.2,29.3,00.0,38.8,32.3,15.9,0001.9,0015.59,0007.65,0007.07
2022-09-25 22:04:00,,0833.6,5.00,0.00,30.3,29.3,00.0,38.8,32.3,15.8,0002.4,0015.18,0007.71,0007.09
2022-09-25 22:05:00,,0833.5,5.00,0.00,30.3,28.2,00.0,38.8,32.2,15.9,0002.2,0015.41,0007.79,0007.11
2022-09-25 22:06:00,,0833.6,5.00,0.00,30.2,26.8,00.0,38.8,32.0,16.0,0002.5,0015.38,0007.88,0007.13
2022-09-25 22:07:00,,0833.6,5.01,0.00,30.1,26.6,00.0,38.7,31.9,16.1,0003.1,0015.05,0007.93,0007.15
2022-09-25 22:08:00,,0833.6,5.00,0.00,30.1,26.8,00.0,38.7,31.8,15.9,0002.9,0015.05,0007.96,0007.17
2022-09-25 22:09:00,,0833.5,5.00,0.00,30.0,27.1,00.0,38.7,31.7,16.1,0002.7,0014.61,0007.95,0007.20
2022-09-25 22:10:00,,0833.6,5.00,0.00,30.0,27.5,00.0,38.7,31.7,16.2,0002.4,0015.08,0007.97,0007.21
2022-09-25 22:11:00,,0833.6,5.01,0.00,30.0,27.8,00.0,38.7,31.8,16.5,0002.4,0014.41,0007.93,0007.20
2022-09-25 22:12:00,,0833.5,5.00,0.00,30.0,28.0,00.0,38.7,31.8,16.6,0002.8,0013.87,0007.93,0007.19
2022-09-25 22:13:00,,0833.6,4.99,0.00,30.0,28.3,00.0,38.7,31.9,16.9,0002.6,0013.64,0007.99,0007.22
2022-09-25 22:14:00,,0833.6,5.01,0.00,30.0,28.5,00.0,38.7,32.0,16.8,0002.6,0013.83,0008.03,0007.25
2022-09-25 22:15:00,,0833.6,5.00,0.00,30.0,28.7,00.0,38.7,32.0,16.6,0002.7,0014.02,0008.07,0007.30
2022-09-25 22:16:00,,0833.5,5.00,0.00,30.1,28.9,00.0,38.7,32.1,16.5,0003.1,0014.08,0008.12,0007.37
2022-09-25 22:17:00,,0833.5,5.01,0.00,30.1,29.1,00.0,38.8,32.1,16.5,0003.1,0014.24,0008.16,0007.43
2022-09-25 22:18:00,,0833.5,5.01,0.00,30.1,29.2,00.0,38.8,32.1,16.4,0003.0,0014.18,0008.20,0007.47
2022-09-25 22:19:00,,0833.6,5.00,0.00,30.2,29.3,00.0,38.8,32.2,16.3,0003.2,0014.26,0008.26,0007.51
2022-09-25 22:20:00,,0833.6,5.00,0.00,30.2,29.4,00.0,38.8,32.3,16.2,0003.0,0014.76,0008.31,0007.55
2022-09-25 22:21:00,,0833.5,4.99,0.00,30.3,29.0,00.0,38.9,32.3,16.2,0002.8,0014.93,0008.32,0007.60
2022-09-25 22:22:00,,0833.5,5.01,0.00,30.3,27.5,00.0,38.8,32.1,16.1,0003.2,0014.75,0008.36,0007.62
2022-09-25 22:23:00,,0833.6,5.01,0.00,30.2,26.6,00.0,38.8,32.0,16.1,0003.3,0014.46,0008.37,0007.65
2022-09-25 22:24:00,,0833.5,5.01,0.00,30.1,26.6,00.0,38.7,31.9,16.2,0003.6,0014.32,0008.34,0007.62
2022-09-25 22:25:00,,0833.5,5.01,0.00,30.0,26.9,00.0,38.7,31.7,16.4,0003.7,0013.64,0008.30,0007.60
2022-09-25 22:26:00,,0833.5,5.01,0.00,30.0,27.3,00.0,38.7,31.7,16.5,0003.7,0013.43,0008.27,0007.57
2022-09-25 22:27:00,,0833.5,4.99,0.00,30.0,27.7,00.0,38.7,31.8,16.6,0003.2,0013.22,0008.20,0007.53
2022-09-25 22:28:00,,0833.5,4.99,0.00,30.0,28.0,00.0,38.7,31.9,16.5,0003.0,0013.18,0008.16,0007.51
2022-09-25 22:29:00,,0833.5,5.01,0.00,30.0,28.3,00.0,38.7,31.9,16.4,0002.7,0013.67,0008.13,0007.49
2022-09-25 22:30:00,,0833.5,4.99,0.00,30.0,28.4,00.0,38.7,31.9,16.5,0002.4,0014.05,0008.13,0007.49
2022-09-25 22:31:00,,0833.4,5.01,0.00,30.0,28.6,00.0,38.7,32.0,16.7,0002.0,0013.66,0008.11,0007.46
2022-09-25 22:32:00,,0833.4,5.00,0.00,30.1,28.8,00.0,38.7,32.0,16.7,0002.1,0013.61,0008.09,0007.44
2022-09-25 22:33:00,,0833.4,5.00,0.00,30.1,28.9,00.0,38.7,32.1,16.4,0001.8,0013.51,0008.06,0007.45
2022-09-25 22:34:00,,0833.4,4.99,0.00,30.1,29.1,00.0,38.8,32.1,16.5,0001.7,0014.01,0008.07,0007.44
2022-09-25 22:35:00,,0833.4,5.01,0.00,30.2,29.2,00.0,38.8,32.2,16.8,0001.7,0014.45,0008.13,0007.46
2022-09-25 22:36:00,,0833.4,5.00,0.00,30.2,29.3,00.0,38.8,32.2,16.6,0001.7,0014.57,0008.17,0007.48
2022-09-25 22:37:00,,0833.4,4.99,0.00,30.3,29.0,00.0,38.8,32.3,16.5,0002.0,0014.96,0008.18,0007.51
2022-09-25 22:38:00,,0833.4,5.00,0.00,30.2,27.5,00.0,38.8,32.0,16.5,0002.1,0015.27,0008.20,0007.52
2022-09-25 22:39:00,,0833.4,5.00,0.00,30.2,26.6,00.0,38.8,31.9,16.7,0002.4,0015.67,0008.20,0007.53
2022-09-25 22:40:00,,0833.4,4.99,0.00,30.1,26.7,00.0,38.7,31.8,17.0,0002.7,0015.92,0008.21,0007.53
2022-09-25 22:41:00,,0833.4,5.00,0.00,30.0,27.0,00.0,38.7,31.7,16.8,0002.8,0015.87,0008.21,0007.53
2022-09-25 22:42:00,,0833.4,5.00,0.00,30.0,27.3,00.0,38.7,31.7,16.9,0002.8,0015.84,0008.22,0007.56
2022-09-25 22:43:00,,0833.4,5.00,0.00,29.9,27.6,00.0,38.7,31.7,17.2,0002.9,0015.29,0008.26,0007.59
2022-09-25 22:44:00,,0833.4,4.99,0.00,30.0,28.0,00.0,38.7,31.8,17.4,0002.9,0015.39,0008.30,0007.58
2022-09-25 22:45:00,,0833.4,5.01,0.00,30.0,28.2,00.0,38.7,31.9,17.1,0003.0,0015.35,0008.30,0007.57
2022-09-25 22:46:00,,0833.3,4.99,0.00,30.0,28.5,00.0,38.7,31.9,16.8,0003.2,0015.40,0008.30,0007.58
2022-09-25 22:47:00,,0833.4,5.00,0.00,30.0,28.7,00.0,38.7,32.0,16.7,0003.2,0015.92,0008.29,0007.56
2022-09-25 22:48:00,,0833.4,5.01,0.00,30.1,28.9,00.0,38.7,32.0,16.5,0002.8,0015.75,0008.33,0007.57
2022-09-25 22:49:00,,0833.4,5.00,0.00,30.1,29.0,00.0,38.7,32.1,16.5,0002.4,0015.62,0008.39,0007.61
2022-09-25 22:50:00,,0833.4,5.00,0.00,30.1,29.1,00.0,38.8,32.1,16.4,0001.8,0015.37,0008.43,0007.65
2022-09-25 22:51:00,,0833.4,5.00,0.00,30.2,29.2,00.0,38.8,32.2,16.6,0001.4,0016.25,0008.48,0007.70
2022-09-25 22:52:00,,0833.4,5.01,0.00,30.2,29.3,00.0,38.8,32.2,16.5,0001.0,0016.54,0008.48,0007.70
2022-09-25 22:53:00,,0833.3,5.01,0.00,30.3,29.4,00.0,38.8,32.3,16.6,0000.8,0016.87,0008.45,0007.67
2022-09-25 22:54:00,,0833.3,5.01,0.00,30.3,28.4,00.0,38.9,32.2,16.9,0000.5,0017.09,0008.44,0007.64
2022-09-25 22:55:00,,0833.3,4.99,0.00,30.2,27.0,00.0,38.8,32.0,16.9,-000.0,0017.02,0008.42,0007.62
2022-09-25 22:56:00,,0833.3,4.99,0.00,30.2,26.6,00.0,38.8,31.9,17.0,-000.5,0016.63,0008.39,0007.63
2022-09-25 22:57:00,,0833.3,4.99,0.00,30.1,26.8,00.0,38.7,31.8,16.8,-000.7,0016.10,0008.32,0007.60
2022-09-25 22:58:00,,0833.3,5.00,0.00,30.0,27.2,00.0,38.7,31.8,16.7,-000.8,0015.62,0008.32,0007.60
2022-09-25 22:59:00,,0833.3,5.01,0.00,30.0,27.6,00.0,38.7,31.8,16.8,-001.1,0015.35,0008.23,0007.54
